Regional Weather Roundup
Issued by NWS Little Rock, AR

Home | Current Version | Previous Version | Text Only | Print | Product List | Glossary On
Versions: 1 2 3 4 5 6 7 8 9 10 11 12 13 14 15 16 17 18 19 20 21 22 23 24 25 26 27 28 29 30 31 32 33 34 35 36 37 38 39 40 41 42 43 44 45 46 47 48 49 50
000
ASUS44 KLZK 171212
RWRLZK

WEATHER ROUNDUP FOR ARKANSAS
NATIONAL WEATHER SERVICE LITTLE ROCK AR
600 AM CST TUE JAN 17 2017

NOTE: "FAIR" INDICATES FEW OR NO CLOUDS BELOW 12,000 FEET WITH NO
SIGNIFICANT WEATHER AND/OR OBSTRUCTIONS TO VISIBILITY.

ARZ001-003-010-029-171300-
NORTHWEST ARKANSAS

CITY           SKY/WX    TMP DP  RH WIND       PRES   REMARKS
FAYETTEVILLE   CLOUDY    37  36  96 SW7       30.08R
6HR MIN TEMP:  33; 6HR MAX TEMP:  39;

FORT SMITH     CLOUDY    36  32  85 W9        30.11S
6HR MIN TEMP:  36; 6HR MAX TEMP:  43;

HARRISON       CLOUDY    39  35  86 W9        30.05R
6HR MIN TEMP:  39; 6HR MAX TEMP:  42;

BENTONVILLE    CLOUDY   N/A N/A N/A W7        30.08R
ROGERS         CLOUDY    38  36  92 W7        30.08R
6HR MIN TEMP:  38; 6HR MAX TEMP:  39;

SILOAM SPGS    CLOUDY    37  34  87 W8        30.08S
6HR MIN TEMP:  36; 6HR MAX TEMP:  37;

HIGHFILL       CLOUDY    38  36  92 W7        30.07R
6HR MIN TEMP:  38; 6HR MAX TEMP:  40;

SPRINGDALE     CLOUDY    37  36  93 W8        30.10
$$

ARZ004-005-016-171300-
NORTH CENTRAL ARKANSAS

CITY           SKY/WX    TMP DP  RH WIND       PRES   REMARKS
BATESVILLE     MOCLDY    46  41  81 W5        30.04F
6HR MIN TEMP:  45; 6HR MAX TEMP:  57;

FLIPPIN        CLOUDY    41  32  70 W6        30.04R
6HR MIN TEMP:  39; 6HR MAX TEMP:  46;

MTN HOME       CLOUDY    40  36  86 W6        30.04S
6HR MIN TEMP:  38; 6HR MAX TEMP:  45;

$$

ARZ040-041-171300-
WEST CENTRAL ARKANSAS

CITY           SKY/WX    TMP DP  RH WIND       PRES   REMARKS
MENA           CLOUDY    43  43 100 W8        30.10R
MOUNT IDA      CLOUDY    46  41  82 CALM      30.06R
6HR MIN TEMP:  45; 6HR MAX TEMP:  50;

$$

ARZ009-017-025-026-028-171300-
NORTHEAST ARKANSAS

CITY           SKY/WX    TMP DP  RH WIND       PRES   REMARKS
CORNING        FAIR      45  41  87 W9        30.04R
JONESBORO      CLOUDY    49  41  74 NW5       30.03R
6HR MIN TEMP:  49; 6HR MAX TEMP:  62;

NEWPORT        CLOUDY    48  45  89 MISG        N/A
6HR MIN TEMP:  48; 6HR MAX TEMP:  62;

WALNUT RIDGE   CLOUDY    45  37  76 W8        30.04S
6HR MIN TEMP:  45; 6HR MAX TEMP:  57;

BLYTHEVILLE    CLOUDY    52  44  74 W13       30.05R
6HR MIN TEMP:  52; 6HR MAX TEMP:  64; 6HR PCP:  0.34;

$$

ARZ022-023-033-042-044-171300-
CENTRAL ARKANSAS

CITY           SKY/WX    TMP DP  RH WIND       PRES   REMARKS
LITTLE ROCK    CLOUDY    48  45  89 NW5       30.07F
6HR MIN TEMP:  48; 6HR MAX TEMP:  57; 6HR PCP: TRACE;

N LITTLE ROCK    N/A     47  43  88 NW3       30.08S
6HR MIN TEMP:  47; 6HR MAX TEMP:  57;

JACKSONVILLE   CLOUDY    48  42  80 W8        30.06R
6HR MIN TEMP:  48; 6HR MAX TEMP:  58; 6HR PCP: TRACE;

SEARCY         CLOUDY    48  41  76 CALM      30.07S
6HR MIN TEMP:  48; 6HR MAX TEMP:  57; 6HR PCP: TRACE;

HOT SPRINGS    CLOUDY    49  45  86 NW3       30.09R
6HR MIN TEMP:  49; 6HR MAX TEMP:  53; 6HR PCP: TRACE;

RUSSELLVILLE   PTCLDY    43  36  76 W12       30.07F
6HR MIN TEMP:  42; 6HR MAX TEMP:  50;

CLINTON        CLOUDY    41  41 100 CALM      30.06S
$$

ARZ036-171300-
EAST ARKANSAS

CITY           SKY/WX    TMP DP  RH WIND       PRES   REMARKS
WEST MEMPHIS   CLOUDY    52  50  93 CALM      30.05R
6HR MIN TEMP:  52; 6HR MAX TEMP:  64; 6HR PCP:  0.47;

$$

ARZ050-053-066-070-073-171300-
SOUTHWEST ARKANSAS

CITY           SKY/WX    TMP DP  RH WIND       PRES   REMARKS
ARKADELPHIA    CLOUDY    51  49  92 CALM      30.08S
6HR MIN TEMP:  51; 6HR MAX TEMP:  57; 6HR PCP:  0.12;

CAMDEN         CLOUDY    52  46  82 NW5       30.09S
TEXARKANA      CLOUDY    50  50 100 W5        30.11R
6HR MIN TEMP:  50; 6HR MAX TEMP:  54; 6HR PCP:  0.22;

EL DORADO      CLOUDY    52  50  93 CALM      30.10R
6HR MIN TEMP:  52; 6HR MAX TEMP:  57; 6HR PCP:  0.03;

DE QUEEN       CLOUDY    46  41  82 W6        30.10R
6HR MIN TEMP:  45; 6HR MAX TEMP:  49;

$$

ARZ056-057-069-171300-
SOUTHEAST ARKANSAS

CITY           SKY/WX    TMP DP  RH WIND       PRES   REMARKS
PINE BLUFF     CLOUDY    53  48  83 W5        30.07F
6HR MIN TEMP:  53; 6HR MAX TEMP:  57; 6HR PCP:  0.21;

STUTTGART      CLOUDY    52  43  71 NW9       30.07S
6HR MIN TEMP:  52; 6HR MAX TEMP:  57; 6HR PCP:  0.11;

MONTICELLO     CLOUDY    56  52  86 W5        30.08R
6HR MIN TEMP:  56; 6HR MAX TEMP:  62; 6HR PCP:  0.05;


$$





USA.gov is the U.S. government's official web portal to all federal, state and local government web resources and services.